The following orbital elements are taken from MPC 63135:
Epoch 2007 May 20.0 TT = JDT 2454240.5
T 2007 May 7.5877 TT MPC
q 9.239077 (2000.0) P Q
z +0.002307 Peri. 51.9683 +0.0307278 -0.5057169
+/-0.000004 Node 294.6623 -0.9062905 +0.3496757
e 0.978688 Incl. 108.4339 +0.4215369 +0.7886554
From 125 observations 2007 May 18-2008 May 28, mean residual 0".5.